Regional Weather Roundup
Issued by NWS

Home | Current Version | Previous Version | Graphics & Text | Print | Product List | Glossary On
Versions: 1 2 3 4 5 6 7 8 9 10 11 12 13 14 15 16 17 18 19 20 21 22 23 24 25 26 27 28 29 30 31 32 33 34 35 36 37 38 39 40 41 42 43 44 45 46 47 48 49 50
000
ASUS45 KABQ 181401
RWRNM
WEATHER ROUNDUP FOR NEW MEXICO
NATIONAL WEATHER SERVICE ALBUQUERQUE NM
800 AM MDT THU SEP 18 2014

NOTE: "FAIR" MEANS FEW OR NO CLOUDS BELOW 12,000 FEET AGL WITH NO
       SIGNIFICANT WEATHER OR OBSTRUCTIONS TO VISION.

      THIS PRODUCT IS RELEASED AS TWO VERSIONS.  ONE VERSION NEAR
      THE TOP OF THE HOUR CONTAINING PRELIMINARY DATA FROM ALBUQUERQUE
      AND OTHER STATIONS.  A FINAL VERSION WITH ADDITIONAL DATA IS
      ISSUED ABOUT 10 MINUTES AFTER THE HOUR.

NMZ501-503-504-510>518-181500-
NORTHWEST PLATEAU/NORTHCENTRAL MOUNTAINS

CITY           SKY/WX    TMP DP  RH WIND       PRES   REMARKS
FARMINGTON     SUNNY     56  48  74 E7        30.10R
LOS ALAMOS     SUNNY     56  45  65 N6        30.20R
SANTA FE       MOSUNNY   54  44  69 N15       30.14R
TAOS           SUNNY     48  39  71 CALM      30.21R
ANGEL FIRE     FOG       31  30  94 CALM      30.31R VSB 1

$$
NMZ402-403-502-505>509-181500-
WESTCENTRAL MOUNTAINS/SOUTHWEST MOUNTAINS

CITY           SKY/WX    TMP DP  RH WIND       PRES   REMARKS
GALLUP         SUNNY     54  43  66 E5        30.14R
GRANTS         MOSUNNY   48  45  87 NW7       30.18R
SILVER CITY    LGT RAIN  61  57  88 SE3       30.07R

$$
NMZ407-409-411-412-181500-
SOUTHERN DESERTS

CITY           SKY/WX    TMP DP  RH WIND       PRES   REMARKS
LORDSBURG      RAIN      61  61 100 MISG      29.97S
DEMING         RAIN      63  63 100 E12       30.00R FOG
LAS CRUCES     CLOUDY    64  62  94 CALM      30.03R
HOLLOMAN AFB   PTSUNNY   65  62  88 CALM      30.00R
ALAMOGORDO     CLOUDY    64  64 100 CALM      30.01F
T OR C         CLOUDY    64  61  90 CALM      30.04R

$$
NMZ519>523-181500-
CENTRAL VALLEYS/CENTRAL HIGHLANDS

CITY           SKY/WX    TMP DP  RH WIND       PRES   REMARKS
ALBUQUERQUE    MOSUNNY   59  49  69 N8        30.10R
DOUBLE EAGLE   MOSUNNY   55  50  82 VRB6      30.12R
CLINES CORNERS MOSUNNY   60  49  66 CALM      30.16R
BELEN          FAIR      59  58  94 N3        30.08S
SOCORRO        PTSUNNY   64  63  97 S5        30.06R FOG

$$
NMZ524>526-539-540-181500-
SOUTHCENTRAL MOUNTAINS

CITY           SKY/WX    TMP DP  RH WIND       PRES   REMARKS
RUIDOSO        NOT AVBL

$$
NMZ527>531-181500-
NORTHEAST HIGHLANDS/NORTHEAST PLAINS

CITY           SKY/WX    TMP DP  RH WIND       PRES   REMARKS
LAS VEGAS      MOSUNNY   50  41  71 N9        30.17R
RATON          SUNNY     49  43  80 N6        30.14R
CLAYTON        SUNNY     63  53  70 SW7       30.06R

$$
NMZ532>537-181500-
EASTCENTRAL PLAINS

CITY           SKY/WX    TMP DP  RH WIND       PRES   REMARKS
TUCUMCARI      MOSUNNY   64  61  90 CALM      30.02R
CANNON AFB     NOT AVBL
CLOVIS AIRPORT   N/A     64  63  94 E8        30.07R

$$
NMZ028-029-538-181500-
SOUTHEAST PLAINS

CITY           SKY/WX    TMP DP  RH WIND       PRES   REMARKS
ROSWELL        LGT RAIN  66  64  93 S8        30.00R
CARLSBAD       LGT RAIN  66  32  28 SW5       29.98R
HOBBS          LGT RAIN  64  64 100 SW5       30.02F


$$


USA.gov is the U.S. government's official web portal to all federal, state and local government web resources and services.